GFSNE_250_spd_231.txt.gz
Wind_Speed
40 43 45 46 47 49 50 50 50 50 54 59 60 62 64 62 63 67 67 75 73 79 77 82 88 84 81 83 82 81 77 83 106 106 107 112 110 108
43 46 50 53 54 56 56 54 51 53 54 58 63 65 65 66 68 71 73 76 85 87 83 89 95 85 80 78 82 78 87 107 111 112 109 106 105 106
51 54 57 59 59 60 62 61 63 66 61 60 61 66 66 72 74 79 80 84 89 91 93 96 98 84 83 79 85 93 103 115 113 110 105 105 104 103
58 59 60 60 62 64 65 68 70 71 70 70 68 68 71 74 80 83 88 89 91 93 96 101 95 87 87 89 96 112 109 111 107 105 103 104 103 101
62 64 66 68 70 71 71 72 74 77 75 76 75 78 79 82 84 84 89 89 92 96 100 105 93 90 92 103 114 113 113 106 106 106 105 102 104 105
69 70 72 74 77 78 79 79 81 83 84 84 84 89 87 88 87 87 88 91 95 101 105 100 95 98 106 113 118 115 108 107 106 105 105 105 105 102
76 77 79 80 82 82 83 85 87 89 90 90 92 94 92 92 91 91 92 97 100 105 104 100 105 113 117 119 117 112 110 107 106 104 104 102 96 89
83 85 86 86 88 88 90 92 94 94 97 97 97 97 94 97 96 96 97 104 106 107 105 112 116 118 119 118 114 114 109 108 106 107 100 95 89 88
88 88 90 92 93 93 95 99 100 101 101 99 99 101 100 100 102 102 107 110 111 111 115 119 121 121 119 117 115 110 107 105 101 96 93 89 90 88
93 94 96 97 95 97 100 104 107 104 101 100 102 101 104 104 106 110 112 114 116 115 121 123 124 119 118 115 112 107 107 101 96 94 91 93 92 88
98 100 103 102 102 99 104 105 106 106 104 105 104 107 107 110 111 115 118 117 118 123 123 122 123 120 114 112 107 110 101 98 94 96 92 92 89 85
105 106 107 106 107 104 106 112 112 108 108 109 111 110 113 115 118 118 120 121 125 125 126 124 122 115 113 111 110 101 100 98 95 92 93 93 89 87
108 108 109 111 110 110 109 113 110 111 112 113 114 117 119 120 121 123 120 125 126 126 126 121 117 113 110 108 103 102 98 96 93 97 97 92 87 84
113 114 112 111 111 110 113 118 117 117 119 119 120 122 121 125 124 125 126 126 126 127 120 119 111 112 109 97 99 100 98 98 99 101 96 90 85 78
112 113 113 112 112 115 118 124 122 125 124 125 124 124 125 127 128 127 128 127 126 122 118 114 112 107 97 101 101 100 102 102 105 99 92 85 78 69
113 114 114 115 118 121 126 126 127 128 128 129 130 130 128 128 128 127 126 126 121 114 110 112 106 101 103 101 102 104 107 107 102 93 85 79 73 68
121 123 124 125 128 127 128 130 130 130 131 134 131 132 132 131 130 128 128 119 116 115 110 106 99 103 102 102 106 107 105 98 90 86 78 72 65 60
125 127 127 128 129 129 130 130 134 133 134 135 134 134 129 128 129 126 121 118 118 110 102 104 106 105 106 106 107 102 96 88 81 75 69 64 60 54
130 131 130 131 133 132 135 135 134 135 134 135 133 133 130 125 121 118 117 116 106 106 104 102 104 109 109 110 105 95 87 78 73 71 65 59 55 50
133 132 132 134 136 134 134 136 134 136 134 132 129 124 121 115 113 116 116 111 107 103 101 105 108 110 108 102 92 83 77 73 68 65 60 55 52 46
132 132 132 133 133 134 126 130 131 129 125 124 122 117 115 113 117 112 106 106 100 101 105 110 111 106 100 93 86 79 75 66 64 61 55 52 49 43
124 123 123 125 124 127 124 121 117 112 116 116 114 110 110 109 113 106 106 101 102 105 108 109 106 97 88 84 81 75 71 64 60 58 52 49 44 39
114 112 111 117 121 113 111 109 110 103 114 116 116 110 109 106 105 104 98 101 106 106 106 100 94 86 83 79 75 71 66 64 56 56 49 43 40 37

GFSNE_250_spd_234.txt.gz
Wind_Speed
37 36 37 37 41 44 45 48 51 49 48 53 54 59 61 63 64 62 69 66 71 75 79 79 79 81 83 80 83 88 94 93 89 84 88 92 102 113
40 39 40 45 47 50 54 55 53 53 52 56 62 62 64 66 69 71 74 75 77 82 85 87 80 83 81 84 89 96 98 95 90 91 98 109 113 111
47 49 51 52 55 56 59 59 59 61 62 65 66 68 69 72 74 77 79 83 85 87 88 85 86 81 86 91 98 100 100 99 99 108 110 114 111 108
53 55 59 61 62 63 65 66 68 71 71 72 71 74 77 79 81 85 87 87 88 89 88 86 88 87 94 100 102 101 106 104 109 113 115 112 109 106
62 62 62 64 65 67 70 72 75 77 79 79 81 84 84 85 85 89 91 92 91 92 88 92 93 97 102 102 108 108 108 110 114 117 114 109 104 100
68 67 69 71 74 76 78 79 80 83 85 87 86 89 89 89 90 93 94 95 94 90 95 97 100 103 106 109 110 111 112 113 119 117 116 105 98 93
76 78 80 82 83 84 84 84 87 87 88 90 92 94 96 97 96 98 97 97 94 97 102 102 103 109 111 114 114 113 116 117 118 118 105 100 94 85
82 85 86 87 88 89 91 90 91 92 96 99 99 101 101 102 101 101 100 100 100 104 105 107 112 113 114 116 118 119 119 119 119 106 100 94 85 85
88 89 89 89 90 92 93 93 94 97 103 106 105 109 108 108 106 105 104 104 103 105 110 114 116 117 119 119 119 120 119 119 105 102 98 90 86 86
92 91 92 95 96 95 97 96 99 105 109 111 110 111 110 109 108 108 107 106 109 112 115 119 117 119 119 122 121 120 117 107 107 99 91 89 87 88
100 99 99 100 101 102 106 104 106 108 108 109 109 109 109 111 109 109 106 109 115 117 119 118 123 124 125 123 121 117 106 103 99 94 92 92 93 90
109 106 105 106 104 107 104 107 107 108 108 107 108 109 111 111 112 108 113 117 119 121 121 122 127 123 124 122 118 108 104 101 97 97 98 99 99 99
107 106 105 103 102 104 106 107 107 106 109 109 108 111 113 117 116 120 120 123 124 126 126 129 131 125 120 114 111 104 102 104 102 100 97 100 103 101
107 107 105 104 103 103 103 103 105 109 110 112 115 119 123 122 123 125 125 127 128 129 132 132 124 121 117 108 105 108 108 101 92 96 100 102 104 99
105 106 107 105 105 107 107 105 108 114 119 120 123 123 124 125 124 129 129 128 132 132 128 126 120 113 108 103 106 106 98 95 100 103 104 104 101 94
123 122 119 114 116 113 115 118 121 121 117 120 124 128 128 128 129 129 131 133 134 131 123 120 114 106 104 108 106 100 98 101 103 103 104 102 95 82
125 121 121 120 121 123 123 121 120 122 125 128 129 130 130 131 131 134 133 134 127 125 118 112 111 105 107 110 103 101 97 103 105 105 102 94 85 75
122 126 126 127 126 126 127 126 125 127 129 130 130 129 132 132 133 131 128 125 117 118 118 106 109 104 106 101 101 102 106 106 107 100 92 85 78 69
120 125 126 130 135 128 125 125 130 126 128 131 129 129 133 129 129 120 117 117 115 112 112 110 109 106 104 105 109 107 106 109 99 91 83 78 72 63
118 127 127 127 130 129 130 131 127 129 131 125 126 128 128 119 117 117 115 112 111 114 110 110 110 105 105 109 109 110 111 106 95 87 78 72 67 59
115 117 119 118 122 129 127 126 125 122 119 121 119 111 113 114 111 112 111 115 116 117 115 116 114 109 109 109 111 113 109 99 89 79 73 66 59 54
110 111 111 110 108 109 111 110 106 108 112 108 109 108 106 107 109 108 113 117 119 120 120 116 112 110 113 113 111 106 98 90 81 75 68 61 54 51
102 101 100 97 100 97 103 100 99 95 97 101 103 97 94 107 111 112 114 121 122 122 121 115 112 110 113 108 104 94 87 82 76 68 63 57 51 49

GFSNE_250_spd_237.txt.gz
Wind_Speed
39 39 38 39 39 39 41 41 42 45 51 55 56 56 57 60 64 68 71 73 75 78 78 81 83 86 87 88 87 86 87 88 90 95 98 98 99 99
38 39 41 42 44 46 48 49 50 50 49 54 59 63 66 68 70 73 75 79 80 80 81 86 88 91 93 93 91 91 90 94 96 100 99 100 101 100
45 45 47 50 52 53 54 55 56 59 58 60 66 70 72 74 76 79 81 82 83 82 82 88 92 92 93 93 93 93 92 99 104 104 105 105 105 106
54 54 54 57 58 58 59 61 63 65 68 70 73 76 78 80 82 84 87 86 86 88 93 95 97 95 96 94 96 95 101 105 108 108 108 108 108 108
61 62 62 64 67 68 68 70 72 75 77 77 80 81 82 84 87 88 90 90 92 96 97 99 98 98 97 96 98 100 107 109 111 111 113 111 111 107
71 69 69 69 70 68 71 73 75 80 83 86 86 86 89 90 91 91 92 94 97 99 98 101 99 100 98 100 102 108 112 112 113 117 113 109 104 100
79 79 80 77 77 78 80 81 82 83 85 88 91 89 95 98 97 99 104 101 100 99 102 101 102 101 100 104 107 111 114 115 118 115 109 105 100 93
84 86 84 82 85 87 86 87 88 89 91 93 95 97 101 107 106 105 102 104 107 106 104 103 101 105 110 107 113 117 115 119 116 109 103 98 96 94
89 85 85 89 91 92 90 91 92 93 95 100 100 103 110 109 108 105 107 107 108 105 103 103 110 111 110 113 117 118 119 115 113 106 101 98 95 92
93 94 95 96 95 97 97 97 97 96 100 104 107 103 104 104 109 110 106 106 105 103 106 112 112 113 115 118 121 119 117 113 102 98 98 93 94 94
98 99 101 103 103 102 102 99 99 102 104 103 102 102 103 106 108 109 110 107 109 112 116 117 118 120 121 123 121 119 114 106 102 100 94 97 94 92
101 106 112 106 109 112 108 108 104 104 103 101 101 104 103 104 109 112 110 116 119 121 122 121 122 121 125 123 121 117 111 101 98 98 97 97 95 99
106 118 119 116 106 106 106 108 103 96 96 98 101 103 104 108 115 117 117 119 123 126 121 123 123 125 126 126 121 116 107 101 103 97 102 98 99 102
101 105 113 113 108 108 106 103 99 94 99 106 110 113 112 116 119 121 122 123 126 124 124 126 126 128 126 121 119 111 104 103 101 99 99 103 106 109
116 116 109 109 109 110 112 114 113 116 116 116 117 119 121 126 122 125 125 125 123 124 124 125 127 125 123 117 113 111 107 103 103 105 99 103 115 110
128 133 131 132 130 123 121 122 121 118 119 119 119 120 122 126 122 125 123 126 124 121 123 126 122 120 115 112 109 108 109 104 109 105 109 110 112 110
129 129 127 120 114 113 115 119 116 114 116 118 123 119 121 122 122 122 122 123 117 118 121 123 117 113 111 109 110 108 107 109 112 109 109 111 110 106
124 121 114 120 116 116 121 120 115 121 119 118 123 119 117 118 115 117 119 117 118 122 115 115 112 111 112 110 112 113 111 110 108 108 110 111 111 102
124 120 114 121 114 113 115 113 111 110 119 115 115 113 105 107 112 113 110 110 124 120 114 110 106 112 111 112 111 112 110 111 109 112 110 114 106 92
118 113 113 108 107 107 105 112 105 109 115 113 104 105 107 105 106 109 111 119 119 116 113 111 107 108 109 114 115 115 108 105 108 112 111 105 96 84
113 111 107 105 108 110 104 108 110 113 113 103 101 97 110 109 105 110 112 109 110 108 109 104 108 107 108 113 114 110 109 105 110 113 108 97 86 82
108 106 104 102 108 112 109 104 100 102 99 103 98 103 103 103 104 107 106 103 103 101 102 105 107 107 109 110 108 107 100 104 110 109 100 90 82 76
106 101 100 101 98 108 104 107 103 84 93 102 98 100 101 104 105 105 102 95 99 101 102 103 102 103 106 98 99 96 108 111 109 102 93 85 79 72

GFSNE_250_spd_240.txt.gz
Wind_Speed
49 44 41 40 37 37 39 41 40 43 47 52 53 54 54 56 60 65 68 69 71 75 76 79 79 80 84 87 93 95 92 92 89 94 92 87 98 102
49 48 46 44 41 43 44 44 43 43 44 52 56 57 60 64 65 68 72 76 78 80 82 83 84 85 89 94 92 95 94 89 93 92 92 97 102 105
54 53 53 52 52 53 53 53 54 57 55 60 65 65 65 67 72 77 78 79 81 85 84 89 90 92 94 93 94 95 91 89 95 93 97 99 105 103
63 60 62 63 59 58 62 63 63 62 59 61 66 70 70 74 78 81 84 85 87 92 92 93 98 99 98 96 97 95 89 97 98 100 99 103 108 104
68 67 70 69 69 68 66 67 68 67 72 75 76 77 80 84 85 86 88 91 92 96 97 98 98 97 97 96 100 95 99 100 102 103 102 107 111 104
76 74 71 71 71 73 72 72 74 77 80 83 82 85 88 89 90 91 91 97 98 104 101 101 97 97 97 99 95 99 105 105 105 105 106 108 108 101
84 82 79 77 76 79 81 81 82 86 84 85 87 88 90 91 93 96 97 102 102 108 105 101 99 99 100 99 104 105 105 111 107 107 109 110 106 100
86 88 87 87 85 82 87 88 92 88 91 93 89 91 94 95 98 102 99 103 105 102 102 106 103 102 100 106 110 111 114 110 111 110 111 110 106 99
91 89 89 92 92 88 86 86 89 91 92 95 95 100 99 101 101 106 103 101 99 103 105 106 104 107 110 110 116 117 115 114 109 110 110 109 107 99
92 92 93 95 96 94 95 95 95 99 102 105 105 102 105 99 102 100 97 99 105 104 104 107 113 112 116 119 120 118 114 110 110 108 111 109 107 104
95 97 97 98 92 95 98 98 99 106 108 107 105 99 93 99 97 93 96 102 101 107 113 113 116 120 119 122 120 115 111 108 109 109 115 109 106 103
96 94 95 98 90 90 95 98 108 110 109 105 98 96 91 91 89 95 100 100 106 116 120 119 119 119 119 116 117 110 110 108 110 112 116 113 106 104
111 102 98 99 95 95 94 100 109 106 109 103 98 104 104 102 100 107 109 111 118 123 124 117 120 119 117 116 110 106 107 109 115 117 123 120 112 107
121 115 108 101 97 88 72 90 96 78 75 88 92 89 94 107 107 109 114 119 119 119 123 123 119 114 113 112 107 107 108 110 113 119 124 119 116 108
120 117 114 102 96 90 82 93 95 82 80 87 94 102 115 119 116 115 116 111 115 123 124 123 114 114 114 107 105 105 110 116 119 119 122 119 112 103
122 119 117 112 104 97 96 101 110 117 115 119 123 122 123 122 118 116 116 122 123 120 121 111 111 111 112 107 106 109 114 120 122 122 120 113 107 99
137 134 129 120 111 106 102 102 103 110 120 126 133 133 130 126 118 120 121 123 120 114 112 110 110 110 109 106 107 111 116 122 123 122 116 110 97 97
136 133 133 133 132 129 126 121 123 126 124 126 134 131 123 125 128 126 121 117 116 114 112 108 110 112 108 107 111 113 117 117 118 116 110 103 103 99
135 132 130 129 126 123 118 112 103 123 117 125 125 130 126 124 123 124 119 108 105 105 104 107 111 110 110 111 114 114 117 117 114 111 109 102 102 103
134 132 130 127 124 122 118 112 114 116 115 117 122 127 118 118 114 114 105 102 108 104 111 108 109 111 113 114 116 118 118 116 113 111 107 98 100 103
128 128 128 126 123 120 117 113 102 119 112 112 117 115 108 107 112 104 104 106 110 103 104 113 114 112 111 114 117 118 117 115 112 109 107 106 104 97
113 116 117 118 118 116 114 113 112 109 107 111 111 113 114 107 105 99 97 104 113 112 115 115 113 111 113 118 118 118 114 111 110 106 102 96 97 97
96 98 99 101 104 104 104 103 102 103 108 104 108 105 103 105 104 105 111 117 115 117 116 111 111 113 116 118 116 115 114 109 104 96 92 94 96 92

GFSNE_250_spd_246.txt.gz
Wind_Speed
66 67 67 68 67 65 59 54 47 49 49 53 53 55 52 46 50 55 56 57 59 63 65 69 74 79 83 83 85 86 90 85 82 80 83 82 87 90
69 66 64 64 62 61 59 55 49 42 40 57 56 58 59 58 57 56 59 63 66 71 74 75 81 83 87 88 91 90 89 86 83 81 87 83 89 95
74 69 67 69 66 64 64 62 58 54 45 55 55 55 56 58 61 65 67 69 72 75 78 80 82 87 91 90 90 86 88 88 87 89 90 86 91 97
76 73 69 73 72 68 65 64 64 63 59 55 61 63 66 70 72 73 74 73 74 76 77 81 85 89 94 91 89 90 87 89 91 93 88 89 97 104
81 74 74 78 76 73 73 74 75 73 72 70 67 68 68 72 74 73 74 76 75 78 81 84 89 94 91 88 86 87 89 90 92 87 94 96 101 104
82 74 81 85 85 84 85 82 80 81 81 77 73 70 76 77 76 76 76 76 77 80 84 88 94 88 89 87 89 88 91 92 87 90 98 103 107 109
90 88 87 89 93 94 93 91 91 89 84 81 81 80 79 79 81 81 78 81 80 84 88 93 88 87 83 89 93 92 94 94 98 94 98 105 110 118
107 98 101 97 96 96 98 98 98 95 92 90 86 82 81 83 78 77 82 85 86 88 91 94 89 91 81 85 94 99 102 106 100 98 101 109 117 123
118 119 113 109 110 108 108 105 103 100 97 92 87 83 78 80 81 82 85 86 88 93 94 91 88 87 93 88 98 104 98 99 100 101 106 114 122 126
126 124 120 120 118 114 113 113 111 109 107 106 100 91 84 86 85 84 85 89 96 93 92 80 80 86 83 88 94 97 97 99 100 108 114 124 123 125
131 132 130 127 125 121 119 119 116 113 117 116 110 107 100 95 86 84 73 71 93 92 89 78 83 79 76 82 89 98 99 102 104 116 121 122 127 136
135 133 133 129 128 127 127 126 123 119 121 121 120 115 111 107 98 92 85 88 87 74 94 91 90 80 89 91 93 96 104 111 118 126 120 131 130 138
139 135 134 136 134 133 133 132 130 126 127 126 125 124 121 117 110 102 95 92 87 87 92 105 108 112 110 99 97 112 113 118 123 119 133 129 138 134
140 139 140 139 139 137 135 136 134 132 130 129 128 125 125 123 119 115 103 100 97 97 101 107 108 109 112 115 119 118 124 121 120 131 134 132 133 136
147 144 142 140 141 138 138 136 136 137 133 129 126 126 125 121 118 116 112 107 101 102 103 105 109 115 119 122 123 123 129 127 122 127 128 137 131 133
147 147 145 144 146 145 143 140 135 131 130 128 130 129 128 123 122 117 107 98 93 88 90 90 98 106 116 119 121 123 126 126 131 132 135 137 130 146
144 143 146 146 145 144 144 143 148 148 144 140 135 131 129 126 121 117 110 103 102 101 97 99 102 107 113 117 120 121 122 130 132 131 142 151 144 140
135 136 139 141 139 141 141 143 145 144 143 145 144 144 143 141 138 134 129 124 117 114 116 119 120 117 111 107 113 120 128 125 140 143 145 135 137 137
121 120 123 127 128 130 133 135 135 136 138 139 139 137 140 141 140 139 134 128 123 118 120 125 118 107 101 110 121 125 133 138 135 139 139 133 139 137
107 109 114 115 118 119 121 121 121 122 124 126 129 130 133 137 138 136 133 126 121 116 115 116 112 120 123 124 127 131 132 129 132 137 136 137 140 138
94 96 98 100 104 104 106 109 108 110 114 116 118 118 117 121 123 124 124 124 120 119 125 119 119 123 121 126 131 128 128 131 136 138 139 138 136 137
81 81 82 86 86 88 91 95 95 95 98 101 103 105 107 106 108 110 109 105 112 119 114 114 115 120 120 124 127 132 134 134 135 137 133 136 134 133
76 76 77 78 78 78 81 81 80 83 85 87 87 89 94 98 98 97 99 101 108 100 110 112 111 113 120 123 126 126 131 132 135 134 134 129 127 123

GFSNE_250_spd_252.txt.gz
Wind_Speed
59 52 54 57 61 64 59 58 55 55 60 64 63 57 58 52 49 47 46 49 51 54 54 54 56 54 56 60 64 67 73 70 74 76 76 79 72 74
65 61 61 64 67 71 69 66 64 60 55 69 69 71 65 65 58 55 52 52 57 52 52 55 57 60 63 65 67 69 71 72 75 76 74 74 74 75
73 67 67 69 71 75 75 73 70 67 61 51 57 70 70 68 72 69 65 62 62 60 61 58 60 62 65 69 73 72 73 77 80 82 84 84 85 84
76 71 71 75 76 77 74 74 66 60 53 55 61 68 71 76 78 82 73 67 61 60 60 64 64 67 70 74 77 77 79 79 82 84 84 88 88 83
84 82 79 78 77 82 73 70 66 70 71 67 68 74 80 78 83 81 76 71 70 65 66 68 70 71 74 79 82 82 85 87 88 87 88 91 92 96
87 87 89 89 87 83 85 88 83 91 89 77 79 78 86 87 86 79 78 77 76 72 73 72 78 80 80 87 86 88 89 94 93 94 95 93 100 97
87 87 95 103 91 89 84 89 94 92 90 92 96 94 88 88 85 88 82 78 81 83 85 90 91 94 101 104 100 95 97 95 98 102 99 98 100 99
99 88 80 86 95 94 88 93 90 92 94 98 92 87 87 83 87 86 91 86 88 85 92 97 104 107 105 108 104 101 103 101 102 103 103 103 99 99
105 108 101 96 96 100 100 101 95 102 106 106 96 94 89 95 93 94 95 97 96 95 101 105 109 107 109 108 110 109 107 106 107 108 108 106 105 104
117 117 115 117 119 114 115 110 111 106 106 106 103 96 98 100 106 104 104 109 107 100 107 112 112 111 115 117 116 116 113 113 114 111 109 107 104 106
126 125 122 123 127 124 120 116 118 115 111 118 118 107 109 112 111 111 108 112 111 112 115 120 124 127 126 122 122 122 119 118 109 107 106 105 101 101
135 135 132 131 131 131 127 129 129 126 129 123 119 116 116 122 127 132 135 138 133 127 129 130 125 122 123 121 114 111 106 100 97 94 92 87 95 86
136 137 136 139 137 137 133 133 136 132 132 132 136 138 142 141 143 144 145 141 136 130 127 130 127 124 115 106 106 101 105 101 101 97 98 101 92 91
128 134 137 144 142 138 137 140 136 134 140 144 145 147 151 147 144 144 143 139 139 138 136 132 131 128 122 119 118 120 125 126 124 120 120 115 110 111
117 123 131 136 139 140 143 147 144 142 147 151 146 149 151 151 151 152 152 149 150 150 148 148 145 141 140 139 136 139 139 138 139 136 130 129 125 121
115 123 128 128 129 131 136 144 144 144 149 154 154 153 157 157 156 160 158 156 155 156 155 154 156 153 149 147 148 146 148 146 144 141 138 132 129 126
113 114 118 125 131 133 137 137 137 138 140 147 150 152 152 155 157 156 155 155 153 153 151 154 153 152 149 143 146 143 145 143 141 138 136 130 127 122
105 106 107 112 117 121 127 134 135 139 139 143 143 142 143 145 144 145 147 145 143 142 142 143 140 138 137 138 137 132 134 135 135 130 128 124 119 112
96 100 103 105 110 113 117 120 123 127 131 136 140 139 141 144 143 145 145 145 144 143 141 141 141 137 135 133 130 125 124 128 126 121 121 118 113 103
89 91 93 98 101 102 106 110 114 119 121 124 124 127 130 131 133 136 137 138 135 132 130 130 128 128 124 125 119 117 115 108 122 116 106 103 99 91
78 82 86 88 91 93 97 100 102 106 111 113 116 117 119 117 118 119 118 116 116 116 115 114 113 111 110 113 109 105 106 108 106 108 101 96 92 85
70 73 76 79 81 84 86 90 94 97 101 102 103 106 108 106 105 106 105 104 102 102 102 101 100 95 96 95 96 93 91 89 92 89 84 83 81 81
61 64 67 70 73 75 77 78 81 84 87 89 90 90 88 84 82 83 84 84 85 85 83 85 83 85 84 79 77 76 74 79 73 71 76 74 76 77